| time (UTC) | temp C | wind direction | speed KPH | gust KPH | rain 1hr cm | rain 24hr cm | rain mn cm | humidity % | barometer mb |
| 20260906150109 | 20 | 132 | 1.6 | 11.3 | 0.00 | 0.03 | 0.03 | 94 | 1017.9 |
| 20260906144524 | 19 | 162 | 1.6 | 12.9 | 0.00 | 0.03 | 0.03 | 96 | 1017.8 |
| 20260906143003 | 19 | 92 | 1.6 | 6.4 | 0.00 | 0.03 | 0.03 | 96 | 1017.7 |
| 20260906141632 | 19 | 92 | 0.0 | 6.4 | 0.00 | 0.03 | 0.03 | 97 | 1017.7 |
| 20260906140010 | 18 | 92 | 3.2 | 6.4 | 0.00 | 0.03 | 0.03 | 97 | 1017.6 |
| 20260906134547 | 18 | 90 | 0.0 | 6.4 | 0.00 | 0.03 | 0.03 | 97 | 1017.7 |
| 20260906133154 | 18 | 90 | 0.0 | 6.4 | 0.00 | 0.03 | 0.03 | 97 | 1017.6 |
| 20260906131612 | 18 | 90 | 0.0 | 4.8 | 0.00 | 0.03 | 0.03 | 97 | 1017.5 |
| 20260906130103 | 18 | 90 | 0.0 | 0.0 | 0.00 | 0.03 | 0.03 | 97 | 1017.5 |
| 20260906124639 | 18 | 90 | 0.0 | 4.8 | 0.00 | 0.03 | 0.03 | 97 | 1017.3 |
| 20260906123043 | 18 | 90 | 0.0 | 6.4 | 0.00 | 0.03 | 0.03 | 97 | 1017.1 |
| 20260906121504 | 17 | 90 | 0.0 | 6.4 | 0.00 | 0.03 | 0.03 | 96 | 1017.1 |
| 20260906120112 | 17 | 90 | 0.0 | 3.2 | 0.00 | 0.03 | 0.03 | 97 | 1016.9 |
| 20260906114543 | 17 | 90 | 0.0 | 6.4 | 0.00 | 0.03 | 0.03 | 96 | 1016.9 |
| 20260906113048 | 17 | 90 | 0.0 | 4.8 | 0.00 | 0.03 | 0.03 | 96 | 1016.8 |
| 20260906111633 | 17 | 90 | 0.0 | 0.0 | 0.00 | 0.03 | 0.03 | 96 | 1016.7 |
| 20260906110136 | 17 | 90 | 0.0 | 0.0 | 0.00 | 0.03 | 0.03 | 96 | 1016.5 |
| 20260906104528 | 17 | 90 | 0.0 | 0.0 | 0.00 | 0.03 | 0.03 | 96 | 1016.6 |
| 20260906103114 | 17 | 90 | 0.0 | 0.0 | 0.00 | 0.03 | 0.03 | 96 | 1016.4 |
| 20260906101537 | 17 | 90 | 0.0 | 0.0 | 0.00 | 0.03 | 0.03 | 96 | 1016.1 |
| 20260906100052 | 16 | 90 | 1.6 | 4.8 | 0.00 | 0.03 | 0.03 | 96 | 1015.8 |
| 20260906094523 | 16 | 90 | 0.0 | 0.0 | 0.00 | 0.03 | 0.03 | 95 | 1015.6 |
| 20260906093127 | 16 | 90 | 0.0 | 0.0 | 0.03 | 0.03 | 0.03 | 95 | 1015.8 |
| 20260906091549 | 16 | 90 | 0.0 | 0.0 | 0.03 | 0.03 | 0.03 | 95 | 1015.6 |
| 20260906090006 | 16 | 90 | 0.0 | 0.0 | 0.03 | 0.03 | 0.03 | 95 | 1015.5 |
| 20260906084608 | 16 | 90 | 0.0 | 0.0 | 0.03 | 0.03 | 0.03 | 95 | 1015.5 |
| 20260906083103 | 16 | 90 | 0.0 | 0.0 | 0.00 | 0.00 | 0.00 | 95 | 1015.6 |
| 20260906081508 | 17 | 90 | 0.0 | 0.0 | 0.00 | 0.00 | 0.00 | 95 | 1015.7 |
| 20260906080012 | 17 | 90 | 0.0 | 0.0 | 0.00 | 0.00 | 0.00 | 95 | 1015.7 |
| 20260906074533 | 17 | 90 | 0.0 | 0.0 | 0.00 | 0.00 | 0.00 | 95 | 1015.7 |
| 20260906073116 | 17 | 90 | 0.0 | 0.0 | 0.00 | 0.00 | 0.00 | 95 | 1015.7 |
| 20260906071637 | 17 | 90 | 0.0 | 0.0 | 0.00 | 0.00 | 0.00 | 95 | 1015.8 |
| 20260906070010 | 17 | 90 | 0.0 | 0.0 | 0.00 | 0.00 | 0.00 | 95 | 1015.9 |
| 20260906064547 | 17 | 90 | 0.0 | 0.0 | 0.00 | 0.00 | 0.00 | 95 | 1016.1 |
| 20260906063105 | 17 | 90 | 0.0 | 0.0 | 0.00 | 0.00 | 0.00 | 95 | 1016.2 |
| 20260906061543 | 18 | 90 | 0.0 | 0.0 | 0.00 | 0.00 | 0.00 | 95 | 1016.2 |
| 20260906060027 | 18 | 90 | 0.0 | 0.0 | 0.00 | 0.00 | 0.00 | 95 | 1016.2 |
| 20260906054549 | 18 | 90 | 0.0 | 0.0 | 0.00 | 0.00 | 0.00 | 95 | 1016.1 |
| 20260906053100 | 18 | 90 | 0.0 | 0.0 | 0.00 | 0.00 | 0.00 | 95 | 1016.1 |
| 20260906051601 | 18 | 90 | 0.0 | 0.0 | 0.00 | 0.00 | 0.00 | 95 | 1016.1 |
| 20260906050045 | 18 | 90 | 0.0 | 0.0 | 0.00 | 0.00 | 0.00 | 95 | 1016.2 |
| 20260906044602 | 18 | 90 | 0.0 | 0.0 | 0.00 | 0.00 | 0.00 | 95 | 1016.0 |
| 20260906043010 | 18 | 90 | 0.0 | 0.0 | 0.00 | 0.00 | 0.00 | 95 | 1016.0 |
| 20260906041516 | 18 | 90 | 0.0 | 0.0 | 0.00 | 0.00 | 0.00 | 95 | 1016.0 |
| 20260906040019 | 18 | 90 | 0.0 | 0.0 | 0.00 | 0.00 | 0.00 | 95 | 1016.0 |
| 20260906034549 | 18 | 90 | 0.0 | 0.0 | 0.00 | 0.00 | 0.00 | 95 | 1016.1 |
| 20260906033010 | 18 | 90 | 0.0 | 0.0 | 0.00 | 0.00 | 0.00 | 95 | 1016.2 |
| 20260906031537 | 18 | 90 | 0.0 | 3.2 | 0.00 | 0.00 | 0.00 | 95 | 1016.3 |
| 20260906030037 | 18 | 90 | 0.0 | 0.0 | 0.00 | 0.00 | 0.00 | 95 | 1015.8 |
| 20260906024524 | 19 | 90 | 0.0 | 0.0 | 0.00 | 0.00 | 0.00 | 94 | 1015.5 |
| 20260906023019 | 19 | 90 | 0.0 | 0.0 | 0.00 | 0.00 | 0.00 | 94 | 1015.2 |
| 20260906021546 | 19 | 90 | 0.0 | 0.0 | 0.00 | 0.00 | 0.00 | 94 | 1014.9 |
| 20260906020046 | 20 | 90 | 0.0 | 0.0 | 0.00 | 0.00 | 0.00 | 94 | 1014.4 |
| 20260906014537 | 20 | 90 | 0.0 | 0.0 | 0.00 | 0.00 | 0.00 | 94 | 1014.1 |
| 20260906013113 | 20 | 90 | 0.0 | 0.0 | 0.00 | 0.00 | 0.00 | 93 | 1013.7 |
| 20260906011541 | 20 | 90 | 0.0 | 0.0 | 0.00 | 0.00 | 0.00 | 92 | 1013.7 |
| 20260906010011 | 21 | 90 | 0.0 | 0.0 | 0.00 | 0.00 | 0.00 | 90 | 1013.8 |
| 20260906004615 | 21 | 90 | 0.0 | 0.0 | 0.00 | 0.00 | 0.00 | 89 | 1013.6 |
| 20260906003130 | 22 | 90 | 0.0 | 0.0 | 0.00 | 0.00 | 0.00 | 86 | 1013.4 |
| 20260906001549 | 23 | 90 | 0.0 | 4.8 | 0.00 | 0.00 | 0.00 | 83 | 1013.2 |
| 20260906000026 | 24 | 90 | 1.6 | 6.4 | 0.00 | 0.00 | 0.00 | 80 | 1013.0 |
| 20260905234538 | 24 | 90 | 0.0 | 4.8 | 0.00 | 0.00 | 0.00 | 78 | 1013.2 |
| 20260905233003 | 25 | 90 | 0.0 | 11.3 | 0.00 | 0.00 | 0.00 | 77 | 1013.1 |
| 20260905231559 | 25 | 86 | 3.2 | 16.1 | 0.00 | 0.00 | 0.00 | 75 | 1013.0 |
| 20260905230031 | 25 | 91 | 6.4 | 16.1 | 0.00 | 0.00 | 0.00 | 74 | 1013.0 |
| 20260905224604 | 25 | 69 | 3.2 | 14.5 | 0.00 | 0.00 | 0.00 | 74 | 1013.3 |
| 20260905223014 | 25 | 61 | 4.8 | 16.1 | 0.00 | 0.00 | 0.00 | 73 | 1013.3 |
| 20260905221524 | 26 | 71 | 6.4 | 19.3 | 0.00 | 0.00 | 0.00 | 72 | 1013.3 |
| 20260905220002 | 25 | 69 | 6.4 | 14.5 | 0.00 | 0.00 | 0.00 | 74 | 1013.5 |
| 20260905214536 | 26 | 67 | 4.8 | 12.9 | 0.00 | 0.00 | 0.00 | 75 | 1013.6 |
| 20260905213055 | 26 | 57 | 4.8 | 14.5 | 0.00 | 0.00 | 0.00 | 74 | 1014.0 |
| 20260905211540 | 26 | 56 | 1.6 | 9.7 | 0.00 | 0.00 | 0.00 | 76 | 1014.2 |
| 20260905210011 | 25 | 56 | 1.6 | 8.0 | 0.00 | 0.00 | 0.00 | 78 | 1014.4 |
| 20260905204550 | 25 | 55 | 3.2 | 9.7 | 0.00 | 0.00 | 0.00 | 76 | 1014.4 |
| 20260905203026 | 26 | 52 | 1.6 | 9.7 | 0.00 | 0.00 | 0.00 | 77 | 1014.6 |
| 20260905201609 | 26 | 55 | 3.2 | 9.7 | 0.00 | 0.00 | 0.00 | 75 | 1014.6 |
| 20260905200038 | 26 | 55 | 6.4 | 9.7 | 0.00 | 0.00 | 0.00 | 73 | 1014.8 |
| 20260905194521 | 26 | 54 | 0.0 | 6.4 | 0.00 | 0.00 | 0.00 | 75 | 1014.8 |
| 20260905193011 | 26 | 53 | 1.6 | 8.0 | 0.00 | 0.00 | 0.00 | 78 | 1014.6 |
| 20260905191621 | 25 | 52 | 0.0 | 11.3 | 0.00 | 0.00 | 0.00 | 77 | 1014.6 |
| 20260905190017 | 25 | 51 | 3.2 | 8.0 | 0.00 | 0.00 | 0.00 | 77 | 1014.9 |
| 20260905184544 | 25 | 51 | 0.0 | 3.2 | 0.00 | 0.00 | 0.00 | 80 | 1014.9 |
| 20260905181507 | 24 | 51 | 0.0 | 6.4 | 0.00 | 0.00 | 0.00 | 79 | 1014.9 |
| 20260905180040 | 24 | 51 | 0.0 | 4.8 | 0.00 | 0.00 | 0.00 | 80 | 1015.3 |
| 20260905174534 | 24 | 51 | 0.0 | 4.8 | 0.00 | 0.00 | 0.00 | 82 | 1015.3 |
| 20260905173056 | 23 | 51 | 3.2 | 6.4 | 0.00 | 0.00 | 0.00 | 83 | 1015.5 |
| 20260905171542 | 23 | 51 | 0.0 | 4.8 | 0.00 | 0.00 | 0.00 | 83 | 1015.5 |
| 20260905170041 | 23 | 48 | 1.6 | 6.4 | 0.00 | 0.00 | 0.00 | 84 | 1015.5 |
| 20260905163119 | 23 | 46 | 1.6 | 8.0 | 0.00 | 0.00 | 0.00 | 88 | 1015.2 |
| 20260905161521 | 22 | 46 | 1.6 | 8.0 | 0.00 | 0.00 | 0.00 | 89 | 1015.2 |
| 20260905160134 | 22 | 44 | 1.6 | 8.0 | 0.00 | 0.00 | 0.00 | 92 | 1015.2 |
| 20260905154700 | 21 | 44 | 3.2 | 6.4 | 0.00 | 0.00 | 0.00 | 93 | 1015.2 |
| 20260905153001 | 21 | 44 | 1.6 | 8.0 | 0.00 | 0.00 | 0.00 | 94 | 1015.3 |
| 20260905151601 | 21 | 44 | 0.0 | 6.4 | 0.00 | 0.00 | 0.00 | 95 | 1015.3 |